CW8946 Weather Reports


time (UTC)temp
C
wind
direction
speed
KPH
gust
KPH
rain 1hr
cm
rain 24hr
cm
rain mn
cm
humidity
%
barometer
mb
20260508233624 24 241 4.8 12.9 0.00 0.00 0.00 22 1012.1
20260508232647 24 360 6.4 14.5 0.00 0.00 0.00 21 1012.2
20260508231627 24 200 12.9 17.7 0.00 0.00 0.00 22 1012.2
20260508230634 24 213 3.2 17.7 0.00 0.00 0.00 22 1012.3
20260508225649 24 203 8.0 14.5 0.00 0.00 0.00 22 1012.4
20260508224622 24 360 4.8 12.9 0.00 0.00 0.00 23 1012.4
20260508223628 23 236 4.8 12.9 0.00 0.00 0.00 22 1012.6
20260508222613 24 360 9.7 16.1 0.00 0.00 0.00 23 1012.7
20260508221622 24 184 9.7 14.5 0.00 0.00 0.00 22 1012.9
20260508220631 24 169 4.8 17.7 0.00 0.00 0.00 22 1013.1
20260508215625 24 360 9.7 16.1 0.00 0.00 0.00 21 1013.2
20260508214635 24 360 6.4 16.1 0.00 0.00 0.00 23 1013.3
20260508213620 24 360 4.8 17.7 0.00 0.00 0.00 22 1013.4
20260508212633 24 360 12.9 17.7 0.00 0.00 0.00 23 1013.5
20260508211616 23 360 4.8 29.0 0.00 0.00 0.00 23 1013.7
20260508210624 23 360 4.8 22.5 0.00 0.00 0.00 22 1013.8
20260508205625 23 336 4.8 20.9 0.00 0.00 0.00 23 1013.9
20260508204616 23 360 4.8 17.7 0.00 0.00 0.00 23 1014.0
20260508203627 23 360 6.4 14.5 0.00 0.00 0.00 25 1014.1
20260508202613 23 360 4.8 24.1 0.00 0.00 0.00 25 1014.1
20260508201623 23 208 3.2 12.9 0.00 0.00 0.00 26 1014.2
20260508200614 23 360 4.8 20.9 0.00 0.00 0.00 24 1014.3
20260508195618 23 360 8.0 14.5 0.00 0.00 0.00 23 1014.4
20260508194624 23 320 6.4 12.9 0.00 0.00 0.00 24 1014.4
20260508193613 22 360 6.4 14.5 0.00 0.00 0.00 27 1014.4
20260508192622 22 360 9.7 16.1 0.00 0.00 0.00 31 1014.5
20260508191615 22 360 4.8 16.1 0.00 0.00 0.00 33 1014.6
20260508190615 22 360 4.8 14.5 0.00 0.00 0.00 32 1014.7
20260508185616 21 360 8.0 19.3 0.00 0.00 0.00 33 1014.7
20260508184621 21 360 3.2 14.5 0.00 0.00 0.00 35 1014.7
20260508183630 21 360 9.7 12.9 0.00 0.00 0.00 36 1014.8
20260508182617 21 360 8.0 14.5 0.00 0.00 0.00 35 1015.0
20260508181626 20 360 4.8 16.1 0.00 0.00 0.00 35 1015.1
20260508180617 21 360 9.7 16.1 0.00 0.00 0.00 36 1015.1
20260508175622 21 197 3.2 14.5 0.00 0.00 0.00 34 1015.2
20260508174631 20 360 4.8 12.9 0.00 0.00 0.00 32 1015.3
20260508173616 20 360 6.4 12.9 0.00 0.00 0.00 36 1015.3
20260508172621 20 360 6.4 16.1 0.00 0.00 0.00 39 1015.3
20260508171612 20 267 6.4 12.9 0.00 0.00 0.00 41 1015.4
20260508170641 20 150 4.8 9.7 0.00 0.00 0.00 44 1015.4
20260508165612 19 225 6.4 9.7 0.00 0.00 0.00 45 1015.3
20260508164617 19 360 6.4 17.7 0.00 0.00 0.00 47 1015.4
20260508163622 19 360 8.0 16.1 0.00 0.00 0.00 46 1015.2
20260508162616 18 182 8.0 12.9 0.00 0.00 0.00 46 1015.3
20260508161626 18 194 4.8 8.0 0.00 0.00 0.00 50 1015.2
20260508160615 18 360 4.8 9.7 0.00 0.00 0.00 56 1015.1
20260508155624 17 360 4.8 9.7 0.00 0.00 0.00 57 1015.2
20260508154613 17 215 8.0 12.9 0.00 0.00 0.00 57 1015.1
20260508153618 17 218 4.8 9.7 0.00 0.00 0.00 57 1015.0
20260508152628 17 360 4.8 8.0 0.00 0.00 0.00 58 1014.9
20260508151614 17 205 1.6 6.4 0.00 0.00 0.00 59 1015.0
20260508150626 16 360 3.2 6.4 0.00 0.00 0.00 56 1014.9
20260508145621 16 360 1.6 4.8 0.00 0.00 0.00 58 1014.9
20260508144642 15 24 1.6 3.2 0.00 0.00 0.00 58 1014.8
20260508143613 14 360 1.6 4.8 0.00 0.00 0.00 61 1014.7
20260508142642 13 360 1.6 4.8 0.00 0.00 0.00 61 1014.7
20260508141613 12 340 0.0 1.6 0.00 0.00 0.00 60 1014.6
20260508140648 11 360 0.0 1.6 0.00 0.00 0.00 62 1014.6
20260508135627 11 360 0.0 0.0 0.00 0.00 0.00 71 1014.5
20260508134630 10 360 0.0 1.6 0.00 0.00 0.00 71 1014.4
20260508133618 10 360 3.2 4.8 0.00 0.00 0.00 69 1014.3
20260508132622 9 360 0.0 3.2 0.00 0.00 0.00 71 1014.2
20260508131629 8 331 3.2 8.0 0.00 0.00 0.00 70 1014.1
20260508130626 8 360 0.0 8.0 0.00 0.00 0.00 72 1013.9
20260508125639 7 360 0.0 3.2 0.00 0.00 0.00 69 1013.8
20260508124628 8 360 4.8 6.4 0.00 0.00 0.00 70 1013.7
20260508123637 7 360 3.2 4.8 0.00 0.00 0.00 71 1013.6
20260508122620 8 360 0.0 0.0 0.00 0.00 0.00 70 1013.4
20260508121630 8 360 0.0 1.6 0.00 0.00 0.00 69 1013.4
20260508120622 8 360 0.0 1.6 0.00 0.00 0.00 69 1013.3
20260508115614 8 360 0.0 0.0 0.00 0.00 0.00 69 1013.2
20260508114617 8 360 0.0 1.6 0.00 0.00 0.00 67 1013.0
20260508113626 8 360 0.0 4.8 0.00 0.00 0.00 67 1013.0
20260508112617 9 360 0.0 4.8 0.00 0.00 0.00 67 1013.0
20260508111626 9 360 0.0 1.6 0.00 0.00 0.00 66 1013.0
20260508110628 9 360 0.0 0.0 0.00 0.00 0.00 66 1012.9
20260508105624 9 360 0.0 1.6 0.00 0.00 0.00 67 1012.9
20260508104618 9 360 0.0 0.0 0.00 0.00 0.00 67 1012.8
20260508103643 9 360 0.0 0.0 0.00 0.00 0.00 68 1012.7
20260508102627 9 360 0.0 3.2 0.00 0.00 0.00 69 1012.7
20260508101631 8 360 1.6 4.8 0.00 0.00 0.00 69 1012.7
20260508100622 8 313 0.0 0.0 0.00 0.00 0.00 69 1012.6
20260508095622 8 313 0.0 0.0 0.00 0.00 0.00 69 1012.6
20260508094628 8 313 0.0 1.6 0.00 0.00 0.00 69 1012.6
20260508093617 8 360 3.2 4.8 0.00 0.00 0.00 68 1012.6
20260508092625 9 360 0.0 3.2 0.00 0.00 0.00 68 1012.6
20260508091632 9 360 0.0 1.6 0.00 0.00 0.00 69 1012.6
20260508090615 8 360 0.0 1.6 0.00 0.00 0.00 68 1012.6
20260508085649 9 360 0.0 3.2 0.00 0.00 0.00 66 1012.6
20260508084617 10 360 0.0 0.0 0.00 0.00 0.00 65 1012.7
20260508083629 10 360 0.0 0.0 0.00 0.00 0.00 66 1012.7
20260508082617 10 360 0.0 0.0 0.00 0.00 0.00 65 1012.6
20260508081618 10 311 0.0 1.6 0.00 0.00 0.00 65 1012.6
20260508080625 10 360 0.0 3.2 0.00 0.00 0.00 64 1012.6
20260508075626 11 360 1.6 3.2 0.00 0.00 0.00 65 1012.6
20260508074632 11 360 0.0 0.0 0.00 0.00 0.00 64 1012.6
20260508073635 11 360 0.0 0.0 0.00 0.00 0.00 64 1012.5
20260508072616 11 311 0.0 0.0 0.00 0.00 0.00 64 1012.4
20260508071639 11 360 0.0 0.0 0.00 0.00 0.00 61 1012.5
20260508070647 11 360 0.0 0.0 0.00 0.00 0.00 61 1012.6
20260508065619 11 360 0.0 1.6 0.00 0.00 0.00 62 1012.4
20260508064623 11 313 1.6 3.2 0.00 0.00 0.00 64 1012.4
20260508063650 11 360 0.0 3.2 0.00 0.00 0.00 63 1012.4
20260508062617 11 360 3.2 3.2 0.00 0.00 0.00 60 1012.3
20260508061625 12 360 3.2 4.8 0.00 0.00 0.00 59 1012.2
20260508060646 12 313 0.0 3.2 0.00 0.00 0.00 57 1012.2
20260508055627 13 313 0.0 1.6 0.00 0.00 0.00 55 1012.2
20260508054615 13 313 0.0 4.8 0.00 0.00 0.00 54 1012.2
20260508053622 14 313 1.6 4.8 0.00 0.00 0.00 53 1012.2
20260508052627 14 313 0.0 4.8 0.00 0.00 0.00 51 1012.1
20260508051618 14 313 0.0 9.7 0.00 0.00 0.00 50 1012.1
20260508050619 15 49 0.0 0.0 0.00 0.00 0.00 49 1012.0
20260508045627 15 49 0.0 1.6 0.00 0.00 0.00 48 1012.0
20260508044630 15 49 1.6 3.2 0.00 0.00 0.00 47 1011.9
20260508043621 15 360 3.2 8.0 0.00 0.00 0.00 48 1011.9
20260508042623 15 360 0.0 0.0 0.00 0.00 0.00 48 1011.8
20260508041625 15 360 0.0 0.0 0.00 0.00 0.00 47 1011.7
20260508040616 15 229 0.0 0.0 0.00 0.00 0.00 47 1011.7
20260508035635 16 230 0.0 3.2 0.00 0.00 0.00 46 1011.6
20260508034616 16 229 0.0 3.2 0.00 0.00 0.00 44 1011.6
20260508033621 17 230 0.0 1.6 0.00 0.00 0.00 42 1011.4
20260508032630 18 230 0.0 0.0 0.00 0.00 0.00 41 1011.2
20260508031644 18 230 0.0 0.0 0.00 0.00 0.00 39 1011.2
20260508030625 19 230 0.0 0.0 0.00 0.00 0.00 37 1011.1
20260508025624 20 230 0.0 0.0 0.00 0.00 0.00 35 1011.0
20260508024612 20 230 0.0 0.0 0.00 0.00 0.00 34 1010.9
20260508023621 21 230 0.0 0.0 0.00 0.00 0.00 31 1010.9
20260508022613 22 230 0.0 0.0 0.00 0.00 0.00 30 1011.0
20260508021623 22 230 0.0 0.0 0.00 0.00 0.00 30 1010.9
20260508020616 23 230 0.0 0.0 0.00 0.00 0.00 28 1010.9
20260508015625 23 230 0.0 0.0 0.00 0.00 0.00 26 1010.9
20260508014617 23 230 0.0 3.2 0.00 0.00 0.00 26 1010.9
20260508013625 23 230 3.2 8.0 0.00 0.00 0.00 27 1010.9
20260508012651 23 360 4.8 8.0 0.00 0.00 0.00 28 1010.9
20260508011617 23 225 3.2 8.0 0.00 0.00 0.00 28 1011.0
20260508010616 23 360 6.4 9.7 0.00 0.00 0.00 27 1011.0
20260508005616 23 217 6.4 12.9 0.00 0.00 0.00 27 1011.1
20260508004623 23 230 6.4 12.9 0.00 0.00 0.00 26 1011.1
20260508003629 23 360 4.8 12.9 0.00 0.00 0.00 27 1011.1
20260508002621 23 360 6.4 12.9 0.00 0.00 0.00 26 1011.1
20260508001645 23 360 6.4 14.5 0.00 0.00 0.00 27 1011.1
20260508000612 23 360 6.4 16.1 0.00 0.00 0.00 29 1011.1
20260507235614 23 157 8.0 14.5 0.00 0.00 0.00 27 1011.1
20260507234626 23 202 6.4 14.5 0.00 0.00 0.00 27 1011.5